Temp
-7 -7 -8 -7 -7 -6 -6 -6 -6 -6 -6 -7 -6 -6 -6 -5 -5 -4 -4 -4 -4 -4 -4 -4 -4 -5 -5 -6 -6 -6 -6 -6 -8 -8 -8 -7 -7 -6 -6 -6 -6 -6 -6 -6
-7 -7 -7 -7 -7 -6 -6 -6 -6 -6 -6 -6 -6 -6 -6 -6 -5 -4 -5 -5 -5 -4 -4 -4 -4 -5 -5 -5 -5 -6 -6 -7 -8 -8 -8 -7 -6 -6 -6 -6 -6 -5 -5 -5
-7 -8 -8 -7 -7 -6 -6 -6 -6 -6 -6 -6 -5 -6 -6 -5 -5 -5 -5 -5 -5 -5 -5 -5 -4 -5 -5 -5 -5 -6 -6 -7 -7 -7 -7 -7 -6 -6 -6 -6 -6 -6 -6 -6
-7 -8 -7 -7 -7 -6 -6 -6 -6 -6 -6 -6 -6 -6 -6 -5 -5 -5 -5 -5 -5 -5 -5 -5 -5 -5 -5 -5 -5 -6 -7 -7 -7 -6 -6 -6 -6 -6 -6 -6 -6 -7 -6 -6
-7 -7 -7 -7 -7 -7 -6 -6 -5 -5 -6 -6 -6 -6 -6 -7 -6 -5 -5 -5 -5 -5 -5 -5 -5 -5 -5 -5 -6 -6 -6 -6 -6 -6 -6 -6 -6 -6 -6 -6 -6 -6 -6 -6
-6 -6 -7 -7 -6 -6 -5 -6 -5 -5 -6 -6 -6 -6 -6 -6 -6 -6 -6 -5 -5 -5 -6 -6 -6 -6 -5 -5 -5 -5 -6 -5 -6 -6 -6 -6 -6 -6 -6 -6 -7 -6 -6 -4
-7 -7 -7 -6 -6 -6 -6 -6 -6 -6 -7 -6 -6 -6 -7 -6 -7 -7 -7 -7 -6 -6 -6 -6 -6 -6 -6 -6 -6 -6 -6 -6 -6 -6 -6 -7 -7 -7 -6 -6 -7 -7 -7 -7
-7 -7 -6 -6 -6 -5 -6 -6 -6 -6 -5 -5 -6 -7 -6 -6 -6 -6 -7 -7 -6 -7 -7 -7 -7 -6 -7 -6 -6 -6 -6 -6 -6 -6 -7 -6 -6 -7 -7 -6 -7 -6 -7 -7
-7 -7 -6 -6 -6 -6 -6 -6 -6 -5 -5 -6 -6 -7 -7 -6 -6 -7 -8 -7 -5 -7 -7 -7 -7 -6 -6 -6 -6 -6 -6 -6 -6 -6 -6 -7 -7 -7 -7 -6 -6 -7 -7 -7
-7 -7 -7 -7 -6 -6 -6 -6 -5 -5 -5 -5 -7 -7 -7 -6 -7 -7 -8 -6 -7 -7 -7 -7 -7 -6 -6 -6 -6 -6 -6 -6 -6 -6 -7 -7 -7 -7 -7 -7 -6 -7 -6 -7
-6 -6 -6 -6 -7 -6 -6 -6 -6 -6 -5 -6 -6 -6 -6 -7 -7 -7 -8 -8 -7 -7 -8 -8 -7 -7 -6 -6 -6 -6 -6 -6 -6 -7 -7 -7 -7 -7 -7 -7 -6 -6 -6 -7
-6 -6 -7 -7 -6 -6 -7 -6 -5 -6 -5 -6 -6 -6 -6 -7 -8 -7 -7 -8 -8 -8 -8 -9 -9 -8 -7 -7 -7 -6 -6 -6 -7 -7 -7 -7 -7 -7 -7 -7 -7 -7 -8 -8
-6 -6 -7 -7 -7 -7 -7 -6 -6 -6 -6 -6 -6 -6 -7 -7 -7 -7 -7 -8 -8 -8 -8 -8 -8 -8 -7 -7 -7 -7 -7 -7 -7 -7 -7 -7 -7 -7 -7 -7 -7 -8 -9 -8
-7 -6 -7 -7 -7 -7 -7 -7 -7 -7 -6 -7 -7 -7 -7 -7 -7 -6 -7 -7 -7 -8 -8 -7 -8 -7 -7 -7 -7 -7 -7 -7 -6 -6 -7 -7 -7 -7 -7 -7 -7 -8 -8 -8
-6 -6 -7 -7 -7 -8 -7 -7 -7 -6 -6 -7 -7 -7 -7 -7 -7 -6 -6 -6 -7 -7 -8 -8 -7 -7 -7 -7 -7 -7 -7 -7 -6 -6 -6 -6 -7 -7 -7 -7 -7 -7 -8 -8
-7 -6 -6 -7 -7 -7 -7 -7 -7 -6 -6 -7 -7 -7 -7 -7 -7 -7 -6 -6 -6 -7 -7 -8 -8 -7 -6 -7 -7 -7 -6 -6 -6 -6 -6 -6 -6 -6 -6 -7 -7 -7 -7 -7
-8 -7 -7 -6 -7 -7 -8 -7 -7 -7 -7 -7 -8 -7 -7 -7 -7 -7 -6 -6 -6 -6 -7 -8 -7 -7 -7 -7 -7 -7 -7 -6 -6 -7 -7 -7 -7 -7 -6 -6 -6 -6 -6 -6
-8 -8 -8 -8 -8 -8 -7 -7 -7 -7 -7 -7 -7 -7 -8 -8 -8 -5 -6 -6 -7 -7 -7 -7 -7 -8 -7 -7 -7 -7 -7 -7 -7 -7 -7 -7 -7 -6 -6 -6 -6 -6 -6 -6
-8 -8 -8 -8 -8 -7 -8 -7 -8 -8 -8 -8 -7 -7 -8 -8 -8 -7 -6 -7 -7 -7 -7 -8 -8 -7 -7 -7 -7 -7 -7 -7 -7 -7 -7 -7 -7 -6 -6 -6 -6 -6 -6 -6
-7 -7 -8 -8 -8 -8 -8 -8 -8 -8 -8 -8 -8 -7 -8 -8 -8 -7 -7 -7 -7 -7 -8 -8 -7 -7 -7 -7 -7 -6 -6 -7 -7 -7 -6 -6 -6 -6 -6 -6 -6 -6 -6 -6
-8 -8 -8 -8 -8 -8 -8 -8 -8 -8 -7 -7 -8 -8 -8 -8 -7 -7 -7 -7 -7 -7 -7 -7 -8 -7 -7 -7 -7 -7 -7 -7 -7 -7 -7 -7 -7 -6 -6 -6 -6 -6 -6 -6
-8 -8 -8 -9 -8 -8 -8 -8 -8 -8 -8 -7 -8 -8 -8 -7 -6 -6 -7 -7 -7 -7 -7 -8 -8 -8 -8 -7 -7 -7 -7 -7 -7 -7 -6 -6 -6 -6 -6 -6 -6 -6 -6 -5
-8 -8 -9 -9 -9 -8 -9 -9 -9 -9 -8 -8 -6 -7 -7 -7 -7 -7 -7 -7 -7 -7 -7 -7 -7 -7 -7 -7 -7 -7 -7 -7 -7 -7 -6 -6 -6 -6 -6 -6 -6 -6 -6 -6
-9 -9 -9 -9 -9 -9 -8 -9 -9 -10 -9 -9 -8 -7 -6 -6 -6 -6 -7 -7 -7 -7 -7 -7 -8 -8 -8 -8 -8 -7 -7 -7 -7 -7 -7 -6 -6 -6 -6 -6 -6 -6 -6 -6
-9 -9 -9 -10 -9 -9 -9 -9 -9 -10 -10 -9 -9 -8 -7 -6 -6 -6 -7 -8 -8 -8 -8 -8 -8 -8 -8 -8 -8 -8 -8 -7 -7 -7 -7 -7 -7 -7 -6 -7 -7 -7 -7 -6
-11 -10 -10 -9 -9 -9 -9 -10 -9 -9 -9 -10 -9 -8 -8 -8 -7 -6 -6 -7 -8 -8 -8 -8 -8 -8 -8 -8 -8 -8 -8 -8 -7 -7 -7 -7 -7 -7 -7 -7 -7 -7 -7 -7
Height
5906 5900 5895 5905 5910 5913 5915 5922 5918 5918 5917 5910 5905 5917 5916 5912 5909 5908 5906 5905 5902 5903 5901 5898 5896 5897 5898 5900 5901 5903 5906 5910 5915 5920 5924 5927 5928 5928 5929 5932 5933 5932 5931 5931
5906 5903 5906 5910 5914 5916 5918 5923 5920 5918 5918 5915 5918 5918 5915 5913 5912 5912 5912 5909 5906 5905 5904 5903 5902 5901 5900 5900 5901 5902 5904 5908 5914 5919 5925 5926 5927 5928 5928 5931 5931 5930 5929 5929
5903 5905 5907 5913 5913 5915 5921 5922 5919 5917 5917 5914 5915 5917 5917 5915 5914 5914 5914 5912 5911 5909 5907 5907 5907 5906 5905 5904 5906 5906 5905 5911 5917 5922 5925 5926 5926 5926 5926 5925 5927 5927 5924 5921
5903 5907 5912 5913 5915 5916 5916 5917 5919 5920 5917 5914 5912 5915 5919 5918 5917 5917 5917 5917 5914 5912 5911 5911 5910 5909 5910 5909 5909 5910 5912 5916 5919 5923 5924 5925 5924 5924 5925 5925 5923 5923 5920 5920
5904 5906 5911 5913 5913 5912 5915 5916 5917 5916 5916 5918 5911 5916 5917 5919 5918 5919 5920 5919 5919 5916 5915 5914 5913 5914 5913 5913 5913 5915 5916 5918 5920 5922 5923 5922 5923 5923 5924 5924 5921 5919 5920 5919
5905 5905 5909 5909 5909 5910 5912 5917 5917 5916 5916 5912 5912 5914 5913 5915 5918 5916 5919 5919 5918 5916 5916 5915 5915 5914 5914 5916 5916 5917 5917 5918 5920 5921 5921 5921 5921 5922 5923 5921 5918 5918 5909 5899
5904 5907 5907 5909 5909 5908 5910 5914 5913 5915 5912 5912 5910 5908 5913 5911 5914 5915 5914 5915 5917 5916 5915 5915 5917 5917 5916 5915 5916 5916 5917 5918 5920 5921 5921 5920 5920 5920 5921 5919 5918 5918 5916 5897
5904 5904 5908 5910 5910 5911 5910 5913 5914 5910 5910 5909 5906 5908 5909 5909 5909 5906 5912 5915 5914 5913 5914 5915 5917 5918 5918 5917 5917 5917 5916 5917 5916 5918 5919 5919 5919 5918 5919 5917 5915 5917 5918 5915
5904 5904 5909 5909 5909 5908 5909 5909 5910 5910 5911 5901 5901 5900 5905 5907 5908 5905 5902 5908 5907 5904 5908 5913 5915 5918 5918 5918 5917 5916 5916 5915 5915 5916 5916 5917 5917 5916 5915 5916 5913 5913 5914 5913
5907 5905 5906 5908 5909 5908 5909 5911 5911 5910 5910 5904 5900 5900 5904 5903 5904 5898 5885 5903 5893 5868 5896 5908 5911 5912 5914 5915 5916 5916 5914 5913 5914 5914 5914 5914 5914 5914 5913 5912 5910 5908 5908 5909
5905 5905 5908 5906 5903 5906 5905 5905 5906 5907 5908 5905 5901 5903 5896 5899 5892 5885 5884 5894 5889 5887 5896 5907 5909 5910 5910 5912 5912 5912 5911 5910 5910 5911 5912 5912 5911 5909 5909 5909 5907 5904 5902 5903
5903 5904 5904 5904 5900 5898 5899 5903 5904 5905 5907 5902 5900 5899 5896 5895 5887 5879 5888 5889 5897 5887 5908 5910 5911 5911 5910 5909 5908 5909 5908 5908 5908 5909 5909 5909 5908 5907 5906 5905 5902 5901 5898 5898
5900 5902 5901 5900 5899 5899 5900 5900 5901 5901 5902 5899 5896 5896 5893 5893 5892 5891 5889 5886 5897 5905 5910 5912 5912 5912 5910 5909 5907 5907 5906 5907 5907 5907 5907 5907 5907 5905 5903 5901 5899 5896 5896 5898
5894 5897 5897 5896 5896 5895 5895 5897 5897 5898 5898 5893 5893 5893 5889 5889 5891 5884 5893 5889 5899 5900 5907 5909 5909 5910 5908 5905 5904 5904 5904 5904 5904 5905 5904 5904 5903 5902 5900 5899 5898 5898 5898 5898
5888 5888 5891 5893 5890 5891 5895 5895 5895 5895 5895 5893 5891 5890 5888 5888 5889 5890 5893 5891 5896 5899 5903 5906 5906 5905 5904 5903 5903 5903 5902 5902 5902 5902 5901 5901 5899 5898 5898 5897 5895 5895 5894 5894
5883 5884 5886 5888 5890 5892 5892 5892 5892 5890 5890 5890 5890 5887 5886 5886 5887 5886 5890 5892 5896 5900 5902 5901 5898 5900 5900 5899 5899 5899 5899 5898 5897 5895 5894 5893 5893 5892 5892 5891 5891 5891 5890 5889
5880 5880 5882 5884 5887 5888 5888 5890 5889 5888 5887 5886 5885 5883 5884 5882 5881 5883 5886 5889 5889 5892 5893 5894 5895 5896 5894 5895 5895 5896 5895 5894 5893 5892 5890 5889 5888 5886 5886 5886 5885 5885 5885 5884
5874 5875 5878 5881 5883 5883 5885 5886 5884 5884 5884 5883 5885 5878 5878 5879 5878 5882 5885 5883 5885 5886 5887 5888 5891 5891 5892 5892 5892 5891 5891 5891 5890 5888 5887 5885 5883 5882 5882 5882 5881 5881 5880 5879
5869 5871 5872 5874 5876 5877 5879 5883 5877 5877 5879 5879 5879 5881 5873 5873 5873 5874 5877 5881 5880 5882 5883 5885 5886 5888 5888 5888 5888 5888 5887 5886 5885 5884 5883 5881 5879 5878 5877 5876 5876 5876 5875 5874
5864 5865 5867 5870 5869 5870 5874 5876 5868 5870 5872 5875 5875 5878 5873 5873 5873 5876 5881 5880 5880 5881 5883 5884 5884 5885 5884 5883 5883 5882 5882 5881 5881 5880 5878 5877 5875 5873 5871 5870 5870 5869 5868 5867
5854 5857 5858 5860 5861 5864 5867 5869 5869 5866 5867 5870 5870 5870 5871 5870 5872 5875 5877 5877 5878 5880 5880 5880 5879 5879 5879 5879 5878 5877 5876 5876 5875 5874 5873 5872 5870 5868 5866 5865 5864 5862 5862 5861
5843 5847 5849 5851 5851 5851 5858 5862 5864 5863 5859 5860 5865 5864 5865 5865 5866 5872 5873 5873 5875 5875 5875 5876 5875 5874 5873 5873 5873 5872 5872 5871 5871 5869 5868 5866 5864 5862 5860 5859 5857 5856 5855 5854
5829 5835 5839 5842 5843 5844 5847 5849 5853 5854 5853 5853 5853 5859 5860 5860 5862 5866 5869 5869 5869 5870 5872 5870 5870 5868 5867 5866 5866 5866 5866 5866 5865 5864 5863 5861 5859 5857 5855 5853 5851 5850 5849 5847
5815 5819 5823 5828 5833 5830 5832 5832 5838 5842 5846 5847 5846 5848 5851 5853 5857 5861 5862 5862 5863 5864 5865 5864 5864 5862 5861 5860 5860 5860 5860 5860 5860 5858 5857 5855 5853 5851 5849 5847 5844 5843 5841 5840
5800 5809 5809 5812 5814 5823 5817 5822 5823 5823 5838 5839 5840 5837 5841 5843 5848 5854 5857 5857 5857 5858 5859 5860 5860 5858 5857 5856 5854 5854 5854 5854 5853 5852 5850 5849 5847 5845 5843 5840 5838 5836 5833 5830
5785 5791 5793 5796 5799 5806 5814 5811 5811 5817 5825 5830 5833 5836 5829 5834 5836 5843 5848 5853 5852 5851 5852 5853 5853 5852 5852 5850 5849 5848 5848 5847 5846 5845 5844 5841 5840 5838 5835 5832 5830 5827 5825 5822
Wind_Speed
16 14 23 19 18 16 17 2 18 22 16 14 20 12 12 13 15 17 18 18 18 16 17 20 19 15 5 9 10 13 16 12 23 18 14 11 5 3 3 3 6 9 9 9
13 4 17 14 14 14 14 6 12 14 11 12 9 9 11 13 14 14 14 16 19 20 20 18 19 20 22 18 9 11 14 17 24 20 13 8 4 2 3 5 8 11 11 8
10 11 9 3 13 6 2 4 8 14 17 27 17 9 8 8 7 7 8 9 12 13 17 19 19 18 18 19 20 22 22 16 14 12 8 7 6 6 7 9 8 9 9 10
13 9 5 6 8 3 10 9 17 18 20 27 23 23 18 10 10 3 3 6 10 12 13 13 15 17 17 18 17 15 13 12 8 6 5 4 5 6 5 7 9 12 13 12
8 8 1 7 9 17 8 11 3 1 11 14 27 28 30 7 2 5 4 3 2 8 10 11 12 13 13 12 13 13 11 10 8 6 4 2 3 4 5 7 10 14 12 13
3 5 10 12 8 4 12 9 13 12 9 20 20 22 26 14 11 14 7 4 1 4 8 9 10 10 8 9 9 7 5 6 6 6 5 3 0 3 3 6 9 10 12 18
9 11 8 11 12 12 6 9 16 18 9 19 22 21 7 5 10 14 15 13 6 6 6 5 5 8 9 8 6 5 4 2 1 2 2 2 3 4 4 6 8 10 15 12
2 9 3 6 6 6 5 3 13 11 7 23 23 14 16 16 12 14 19 16 12 10 5 5 7 8 8 7 6 5 4 4 4 4 6 5 5 7 7 9 11 11 10 8
12 8 2 10 14 9 15 12 10 4 6 18 22 11 9 18 19 39 29 29 20 16 5 4 3 3 6 7 8 4 3 4 4 5 5 7 8 10 12 12 15 15 12 6
7 16 3 11 9 7 4 8 3 5 9 18 20 11 18 23 23 24 40 29 29 34 10 12 12 10 6 10 10 7 6 7 6 5 4 5 9 12 14 12 14 17 17 13
19 10 2 10 21 11 7 11 10 16 7 15 22 25 23 21 26 36 17 12 9 12 11 8 12 15 14 13 13 11 10 5 3 4 6 11 14 12 11 12 15 20 19 16
7 11 5 11 15 15 12 8 12 14 7 21 21 24 27 25 26 33 5 18 12 17 2 4 8 12 12 16 15 15 11 6 4 5 10 10 7 6 7 11 16 16 17 17
21 19 10 8 13 9 3 2 9 10 11 18 22 19 23 25 29 19 19 19 16 10 6 8 9 6 8 11 13 11 8 6 6 9 9 9 9 10 11 12 14 8 8 13
20 18 22 11 13 11 12 5 4 9 9 16 18 19 25 28 28 16 11 12 3 4 7 9 7 6 7 8 12 10 9 10 10 9 8 9 10 10 11 9 7 6 7 9
23 18 28 15 10 11 7 13 14 17 15 17 14 16 21 23 25 22 14 6 6 8 8 11 12 10 8 8 9 10 11 11 11 10 9 8 9 10 9 8 9 11 12 14
15 14 25 29 13 8 14 6 14 11 16 14 10 12 16 23 22 24 13 16 8 6 8 13 18 16 13 12 11 13 13 14 14 14 14 15 15 14 15 13 10 10 10 12
8 7 10 15 6 12 18 3 11 11 10 10 6 10 13 21 26 28 23 15 14 14 17 12 14 14 15 14 13 13 14 16 15 15 16 19 20 20 19 16 14 14 15 15
18 16 9 11 13 19 16 9 18 21 21 21 15 13 11 16 25 20 13 18 20 22 16 17 11 12 12 13 15 16 17 15 14 15 19 21 22 21 19 17 16 16 17 18
25 20 19 18 19 20 14 11 23 16 18 17 15 15 22 21 21 27 26 21 20 18 16 13 14 13 15 15 15 17 17 15 15 17 19 21 22 22 21 20 20 20 20 19
36 30 30 29 28 28 21 19 24 16 23 22 24 21 26 26 30 28 16 19 16 14 12 14 15 16 17 17 17 17 17 15 16 17 19 21 22 22 23 23 24 24 23 22
42 46 33 27 31 32 30 30 29 29 32 21 18 14 19 24 24 19 15 12 11 12 13 15 16 17 18 17 16 17 18 17 17 19 20 21 21 21 23 24 24 25 25 24
43 40 36 33 38 39 31 31 32 35 34 30 19 24 26 28 23 14 14 15 13 13 14 15 16 18 19 18 16 17 17 17 18 20 22 22 23 23 23 23 23 22 23 25
46 41 42 36 33 34 30 40 27 33 34 36 33 26 26 26 24 17 16 16 17 15 15 17 17 19 19 19 19 18 17 19 19 19 20 22 23 24 24 23 24 25 26 27
47 47 45 45 42 43 41 37 28 34 37 41 42 34 33 31 26 18 17 18 18 17 17 18 18 19 20 21 22 22 20 20 21 21 22 22 24 24 25 26 26 26 27 28
51 47 50 51 51 48 43 37 31 29 43 42 38 34 32 33 31 23 17 16 19 19 20 20 20 21 21 21 23 23 23 23 24 24 25 25 25 26 26 26 26 27 28 30
46 49 54 56 56 55 52 44 29 28 39 41 42 30 33 35 37 30 23 16 17 23 23 22 22 21 20 20 21 22 23 24 25 25 26 27 26 26 27 28 28 29 30 31
Wind_Direction
144 310 88 71 61 80 80 33 306 329 350 348 35 22 18 11 20 38 48 56 56 55 61 63 72 83 89 198 194 221 217 227 205 203 199 196 191 207 246 313 326 328 330 340
155 244 81 74 87 72 79 336 291 315 344 332 354 16 27 25 21 15 29 45 52 56 57 64 72 79 79 80 134 202 195 194 190 187 190 150 141 203 290 301 300 294 291 289
149 37 4 84 98 50 135 214 294 302 312 304 314 337 348 349 7 9 8 47 46 52 59 59 62 66 72 77 80 88 102 135 142 154 171 192 208 249 277 294 300 292 273 259
162 93 327 313 110 279 199 234 238 256 282 288 308 305 311 305 324 345 16 61 75 66 63 62 65 67 67 72 73 77 96 119 137 166 196 225 248 263 282 291 289 283 276 270
156 116 151 309 255 241 233 222 22 156 235 228 273 273 262 342 319 357 280 150 53 57 65 79 74 68 69 71 84 98 105 115 124 121 131 183 254 269 281 285 283 284 296 284
149 144 208 257 305 130 108 85 31 2 344 272 275 273 304 317 299 289 247 227 265 83 107 97 82 73 66 48 52 68 104 126 135 131 128 138 197 280 312 294 293 291 270 265
45 32 27 47 119 100 359 19 346 310 301 282 293 279 306 323 288 235 205 182 181 141 118 91 76 72 71 68 39 32 20 17 283 242 214 234 298 315 313 301 278 280 288 319
319 264 264 338 344 307 179 298 298 297 18 296 297 236 270 274 260 251 233 194 191 135 82 62 73 65 53 52 58 37 24 356 337 298 284 297 284 300 300 293 282 283 287 301
330 125 195 271 352 309 191 173 238 317 357 267 267 266 266 300 288 295 254 191 203 164 100 76 45 42 93 62 35 18 325 304 298 287 276 266 279 279 286 288 280 283 274 271
250 314 307 228 301 348 304 274 169 287 328 326 334 319 298 313 299 299 286 168 194 180 89 356 359 22 63 43 30 13 331 308 291 291 281 283 302 294 284 281 278 275 290 271
236 219 8 240 233 235 208 240 251 270 272 336 321 317 316 321 330 338 16 156 88 97 63 332 340 337 357 3 351 351 336 301 291 317 305 308 307 302 284 278 289 274 270 251
257 203 225 287 270 238 223 275 264 258 247 307 298 299 309 325 343 331 289 136 130 80 220 343 321 316 314 318 328 329 332 324 325 312 317 320 321 324 321 335 325 275 255 239
269 237 224 282 325 258 204 284 255 233 261 298 293 323 315 317 325 315 147 148 149 154 204 262 288 316 301 296 304 314 318 302 295 310 316 321 319 319 321 329 346 322 235 236
270 244 230 214 282 291 156 161 250 269 245 317 320 334 345 344 337 343 136 124 149 135 277 285 296 310 297 299 304 312 307 295 296 306 302 319 324 327 322 318 325 315 283 272
292 272 222 195 269 336 303 275 250 268 261 260 305 325 327 327 326 334 5 70 48 354 327 313 312 333 330 317 295 289 295 287 286 287 296 316 318 325 335 322 308 301 287 269
273 258 228 229 219 264 304 283 317 322 282 279 276 297 297 304 310 314 325 342 296 357 317 305 314 330 326 319 305 300 297 302 311 317 317 325 328 333 332 329 321 316 307 299
296 287 254 220 212 262 253 233 277 272 267 267 273 267 291 297 295 299 318 328 311 353 347 318 312 323 319 314 308 299 300 309 313 316 320 321 321 323 325 321 319 317 316 311
197 211 240 260 238 246 249 234 261 268 265 257 253 283 313 287 288 303 334 326 315 319 321 311 324 317 309 308 308 304 303 304 308 312 313 313 314 314 313 308 310 310 310 305
207 209 214 230 250 242 241 256 258 260 263 274 270 223 255 274 278 296 312 313 306 298 306 319 305 300 297 297 297 296 297 304 308 307 309 310 310 307 304 300 300 302 301 302
234 235 240 237 234 242 229 218 275 260 258 262 262 258 230 249 262 282 299 285 292 296 296 284 285 284 287 289 292 297 299 302 298 300 303 302 302 303 300 294 292 292 298 304
242 245 245 255 255 250 253 242 237 258 270 265 264 248 255 260 266 276 297 288 276 273 272 280 285 285 285 289 297 304 301 299 302 304 303 303 299 295 293 292 289 288 293 298
239 239 231 237 244 239 242 250 259 271 258 260 250 251 259 267 273 279 279 280 272 270 273 279 282 287 285 287 287 291 291 291 294 298 302 305 310 305 299 295 289 288 289 291
239 239 229 229 248 256 251 242 246 239 245 257 262 244 255 272 277 275 274 269 272 273 273 273 279 281 288 290 290 292 288 289 291 297 306 307 302 305 306 297 291 290 289 290
241 236 227 226 225 239 250 237 198 227 236 243 252 266 264 264 268 271 268 273 278 284 288 290 292 290 290 291 290 291 287 287 290 296 301 303 307 307 307 304 297 293 290 287
241 238 232 226 227 226 247 253 231 198 230 240 250 262 266 269 270 267 262 273 279 283 289 290 286 281 275 279 280 284 284 286 289 293 299 302 303 308 306 303 299 295 292 290
236 239 235 232 230 225 222 241 254 242 243 235 247 253 268 267 271 272 272 265 280 282 283 289 291 288 284 274 278 282 285 286 288 291 297 300 302 305 307 303 301 298 295 293